Vorticity
7 -6 55 -8 4 2 18 46 -21 -2 4 9 -3 47 -5 20 -26 11 25 9 14 -0 11 7 7 9 -1 2 0 6 7 9 5 6 7 8 9 10
4 10 -17 -16 52 6 8 9 8 11 11 19 8 3 16 13 14 15 -7 4 10 14 7 7 10 0 2 5 9 7 8 7 9 12 15 13 11 11
28 26 15 9 -33 11 5 7 7 10 -3 49 -0 6 1 1 27 8 13 9 -8 -1 8 7 3 6 6 15 11 9 11 13 12 9 7 4 4 3
12 11 12 14 11 10 14 6 14 11 6 -5 5 23 19 12 7 15 -1 -2 9 7 -3 -6 12 14 11 8 8 10 7 3 2 3 4 5 3 4
13 17 12 9 7 11 14 16 19 8 33 7 4 5 14 16 10 11 14 -3 12 14 10 9 9 8 3 4 4 4 4 1 0 1 8 15 22 24
9 9 9 10 11 3 19 6 13 13 7 5 8 -1 1 6 8 3 9 13 14 8 3 4 3 2 4 2 2 4 10 27 41 44 42 37 31 26
14 9 9 11 6 6 4 1 -7 13 -2 4 5 12 11 11 10 15 12 6 4 1 2 4 2 9 16 30 41 43 40 41 35 26 20 18 17 16
12 11 8 5 -5 17 3 1 16 9 12 17 16 11 12 10 4 3 2 3 6 7 14 30 37 55 42 24 27 33 17 15 19 18 19 24 28 37
10 -8 12 4 6 9 24 16 18 9 13 5 7 4 4 5 4 6 8 17 29 33 37 54 19 12 26 23 10 7 8 5 10 13 24 26 25 46
7 6 10 -0 2 20 7 9 6 5 5 6 4 4 5 8 15 24 32 40 53 24 14 10 21 18 11 7 9 7 13 15 18 16 18 21 18 18
27 23 18 19 17 6 5 4 5 5 9 3 9 16 23 34 44 44 27 11 6 9 21 20 16 10 11 9 10 9 13 14 18 18 11 14 21 15
9 9 9 7 6 4 2 6 10 -2 13 25 28 46 38 13 7 8 13 27 28 10 15 21 12 11 9 11 8 9 9 15 11 5 4 11 10 24
7 6 6 7 5 5 5 11 1 12 29 33 24 8 13 21 33 29 9 14 21 18 15 7 6 9 13 19 13 8 13 13 16 10 3 6 17 8
5 7 8 6 0 7 2 9 6 36 34 16 11 11 22 25 15 10 18 13 12 5 9 14 8 12 19 12 12 10 15 14 14 12 14 5 15 -0
7 7 7 6 4 5 7 8 31 32 11 6 6 3 15 23 15 13 13 12 7 10 11 12 12 15 13 8 13 17 18 13 14 16 20 14 6 3
9 2 6 -1 2 5 0 31 29 22 4 6 3 3 4 16 21 15 12 11 10 8 8 11 12 9 9 10 15 16 12 11 9 12 12 11 19 21
8 8 9 5 1 8 16 27 18 9 11 6 5 4 3 5 16 20 16 13 11 15 10 8 11 8 10 12 12 13 14 9 9 17 20 22 17 15
8 8 8 9 4 9 32 18 13 9 5 3 3 6 7 4 5 16 19 14 12 11 10 11 10 10 12 13 11 14 13 13 19 19 16 17 13 11
6 8 8 8 6 17 32 14 11 13 12 9 7 8 10 7 4 7 16 17 12 12 12 10 9 10 12 18 8 9 16 17 20 19 18 20 20 12
6 3 5 6 8 26 25 11 11 13 14 13 12 13 13 10 7 4 9 16 14 12 12 10 7 8 9 15 13 13 16 19 17 16 16 17 17 12
8 9 5 8 14 34 16 9 10 11 10 10 12 10 10 9 9 6 5 10 14 14 13 10 8 9 10 12 13 19 17 12 14 13 12 9 13 13
9 6 4 -1 29 37 11 7 7 10 12 11 12 11 8 10 12 9 6 6 10 12 11 11 12 10 8 11 13 23 22 13 12 9 7 6 3 7
10 5 10 -3 33 39 13 4 5 11 16 12 8 10 10 10 10 11 7 4 6 7 12 16 12 9 8 10 19 24 22 10 12 8 7 4 6 8
Height
5710 5708 5702 5702 5706 5706 5704 5699 5695 5697 5693 5690 5686 5682 5679 5675 5670 5670 5667 5665 5663 5659 5657 5654 5652 5649 5646 5643 5639 5636 5633 5630 5627 5625 5622 5620 5618 5617
5696 5698 5697 5694 5692 5693 5692 5688 5685 5683 5679 5675 5671 5668 5664 5660 5655 5653 5650 5648 5646 5643 5638 5635 5632 5629 5626 5622 5618 5615 5611 5607 5604 5600 5596 5593 5591 5590
5683 5683 5684 5683 5676 5677 5676 5674 5671 5669 5665 5658 5656 5653 5649 5644 5640 5637 5635 5632 5627 5624 5618 5614 5612 5609 5605 5600 5596 5592 5588 5583 5579 5575 5572 5567 5565 5563
5668 5669 5669 5670 5667 5664 5662 5659 5657 5654 5649 5646 5641 5638 5633 5628 5625 5622 5618 5614 5609 5603 5598 5594 5588 5584 5579 5575 5570 5566 5562 5557 5552 5547 5541 5538 5532 5530
5651 5654 5655 5654 5653 5652 5650 5647 5643 5640 5635 5632 5628 5624 5620 5614 5609 5605 5601 5594 5589 5580 5575 5570 5564 5560 5555 5549 5545 5540 5533 5527 5521 5514 5508 5502 5497 5492
5638 5640 5640 5641 5641 5639 5637 5634 5630 5627 5623 5619 5613 5608 5604 5598 5593 5588 5582 5575 5569 5560 5555 5548 5542 5535 5527 5522 5516 5509 5502 5496 5487 5479 5473 5467 5462 5457
5627 5630 5631 5631 5629 5628 5625 5622 5618 5614 5610 5605 5601 5595 5588 5582 5576 5568 5563 5559 5549 5539 5534 5524 5516 5507 5500 5492 5483 5478 5473 5469 5463 5456 5447 5439 5432 5426
5619 5623 5621 5620 5618 5616 5614 5609 5605 5600 5596 5590 5584 5578 5572 5564 5557 5550 5543 5535 5528 5511 5509 5499 5488 5482 5473 5467 5463 5460 5456 5451 5445 5435 5425 5416 5407 5398
5612 5613 5612 5610 5608 5605 5601 5596 5591 5586 5582 5576 5570 5562 5555 5546 5539 5529 5519 5511 5500 5490 5486 5480 5470 5465 5458 5452 5449 5446 5442 5437 5430 5420 5409 5398 5385 5373
5604 5604 5602 5600 5597 5593 5588 5584 5579 5574 5569 5562 5554 5545 5536 5526 5516 5505 5496 5488 5478 5470 5468 5468 5457 5453 5446 5440 5436 5432 5426 5420 5415 5407 5396 5385 5374 5364
5596 5595 5591 5590 5588 5585 5579 5573 5568 5561 5553 5545 5535 5524 5513 5504 5497 5489 5481 5475 5470 5461 5458 5455 5448 5446 5437 5428 5423 5416 5410 5404 5398 5392 5385 5376 5367 5359
5589 5588 5585 5582 5578 5574 5568 5562 5554 5546 5536 5526 5516 5506 5498 5492 5485 5478 5471 5465 5459 5454 5449 5447 5438 5436 5434 5420 5413 5404 5399 5392 5387 5380 5374 5368 5361 5353
5584 5581 5577 5573 5568 5563 5558 5550 5541 5530 5519 5510 5503 5496 5488 5480 5472 5465 5461 5455 5449 5444 5440 5438 5433 5427 5421 5415 5407 5397 5391 5383 5377 5370 5364 5358 5353 5348
5576 5572 5568 5564 5559 5553 5545 5536 5527 5517 5508 5501 5494 5487 5478 5470 5464 5458 5452 5446 5442 5438 5432 5428 5424 5417 5411 5405 5399 5389 5382 5373 5367 5362 5355 5349 5345 5342
5569 5565 5561 5556 5550 5542 5533 5524 5514 5506 5501 5495 5488 5480 5472 5465 5458 5451 5445 5439 5434 5429 5423 5418 5413 5407 5399 5394 5390 5380 5375 5367 5358 5354 5346 5340 5336 5333
5562 5558 5553 5546 5539 5530 5521 5512 5505 5499 5494 5488 5482 5475 5468 5460 5452 5446 5439 5433 5427 5420 5413 5408 5403 5397 5390 5382 5378 5373 5364 5359 5353 5346 5340 5332 5328 5325
5553 5547 5541 5535 5528 5520 5511 5503 5497 5492 5487 5481 5475 5468 5462 5454 5446 5439 5433 5427 5421 5415 5409 5401 5395 5389 5381 5371 5367 5360 5356 5348 5341 5336 5331 5325 5321 5319
5544 5538 5532 5526 5518 5510 5502 5495 5489 5485 5479 5474 5468 5462 5455 5448 5441 5433 5426 5420 5414 5407 5402 5396 5391 5384 5375 5365 5354 5353 5346 5340 5333 5327 5322 5319 5313 5309
5536 5530 5523 5516 5508 5500 5492 5487 5482 5476 5471 5466 5460 5454 5449 5443 5436 5429 5422 5414 5407 5400 5393 5387 5382 5376 5371 5363 5351 5340 5341 5333 5328 5321 5317 5313 5309 5304
5527 5521 5514 5506 5498 5490 5483 5478 5473 5468 5462 5457 5452 5447 5441 5436 5430 5424 5416 5409 5402 5395 5388 5379 5372 5367 5361 5356 5350 5338 5328 5327 5321 5317 5312 5307 5305 5301
5519 5512 5504 5497 5488 5480 5474 5470 5465 5460 5454 5449 5444 5439 5433 5428 5422 5416 5410 5402 5396 5389 5382 5373 5366 5359 5354 5347 5340 5332 5322 5316 5314 5311 5307 5304 5300 5295
5509 5502 5494 5486 5478 5471 5466 5462 5458 5453 5447 5442 5437 5432 5426 5420 5415 5409 5403 5397 5390 5383 5375 5368 5361 5355 5348 5341 5333 5326 5320 5313 5307 5302 5296 5292 5288 5286
5500 5492 5485 5476 5467 5461 5457 5454 5450 5445 5440 5436 5430 5424 5418 5413 5407 5401 5396 5390 5383 5377 5370 5364 5356 5348 5340 5334 5327 5321 5316 5311 5307 5301 5293 5286 5283 5278